#timestamp,LO_Frequency,Hit,StdDev 
1510250415.4,286047004.2,Y
1510250435.2,286047000.8,P
1510250455.1,286046998.8,N
1510250456.0,286046998.8,N
1510250475.8,286046996.6,N
1510250495.6,286046997.2,N
1510250515.5,286046997.3,N
1510250535.3,286046997.0,N
1510250555.1,286046997.4,N
1510250575.9,286046995.6,N
1510250595.7,286046995.2,N
1510250615.5,286046996.3,N
1510250665.4,286046997.8,E
1510250675.3,286046998.8,N
1510250695.2,286046998.1,P
1510250715.0,286047000.3,N
1510250715.9,286047000.3,N
1510250735.7,286047000.0,N
1510250755.6,286047000.4,N
1510250775.4,286047002.3,N
1510250795.3,286047000.9,N
1510250815.1,286047000.7,N
1510250816.0,286047000.7,N
1510250835.8,286047001.1,N
1510250855.7,286046998.1,N
1510250875.5,286047000.1,N
1510250895.3,286047002.7,N
1510250915.2,286047000.3,N
1510250935.0,286047000.9,N
1510250935.9,286047000.9,N
1510250955.8,286047000.2,N
1510250975.6,286047000.0,N
1510250995.4,286047000.7,N
1510251015.3,286047000.0,N
1510251035.1,286047000.0,N
1510251055.9,286047000.5,N
1510251075.7,286046998.5,N
1510251095.5,286047000.3,N
1510251115.4,286047002.6,N
1510251135.2,286047000.3,N
1510251155.0,286047000.1,N
1510251156.0,286047000.1,N
1510251175.8,286047000.4,N
1510251195.6,286046998.1,N
1510251215.5,286046998.5,N
1510251235.3,286046998.7,N
1510251255.1,286047000.4,N
1510251275.9,286047000.3,N
1510251295.7,286046999.8,N
1510251315.6,286046998.6,N
1510251335.4,286046999.9,N
1510251355.2,286047000.2,N
1510251375.1,286047000.5,N
1510251376.0,286047000.5,N
1510251395.8,286046998.8,N
1510251415.6,286046998.4,N
1510251435.5,286047000.2,N
1510251455.3,286047002.8,N
1510251475.1,286047000.0,N
1510251495.9,286047001.5,N
1510251515.7,286047001.7,N
1510251535.6,286047001.5,N
1510251555.4,286047002.6,N
1510251575.2,286047002.0,N
1510251595.1,286047000.4,N
1510251596.0,286047000.4,N
1510251615.8,286047000.2,N
1510251635.6,286047002.6,N
1510251655.5,286047002.8,N
1510251675.3,286047002.7,N
1510251695.2,286047002.6,N
1510251715.9,286047000.1,N
1510251735.7,286046998.3,N
1510251755.6,286047001.1,N
1510251775.4,286047000.3,N
1510251795.2,286047002.6,N
1510251815.1,286047002.8,N
1510251816.0,286047002.8,N
1510251835.8,286047001.9,N
1510251855.7,286047001.8,N
1510251875.5,286047003.7,N
1510251895.3,286047003.1,N
1510251915.2,286047001.6,N
1510251935.0,286047002.2,N
1510251935.9,286047002.2,N
1510251955.7,286047002.7,N
1510251975.6,286047002.7,N
1510251995.4,286047001.9,N
1510252015.3,286047002.2,N
1510252035.1,286047001.7,N
1510252055.8,286047001.8,N
1510252075.7,286047002.1,N
1510252095.5,286047002.6,N
1510252115.4,286046999.9,N
1510252135.2,286047002.4,N
1510252155.0,286047001.5,N
1510252155.9,286047001.5,N
1510252175.8,286047001.9,N
1510252195.6,286047004.2,Y
1510252215.5,286047001.0,P
1510252235.3,286046998.3,P
1510252255.1,286046999.2,N
1510252275.9,286046997.0,N
1510252295.7,286046999.5,N
1510252315.5,286046998.4,N
1510252335.4,286046999.3,N
1510252355.2,286046996.5,N
1510252375.0,286046999.6,N
1510252376.0,286046999.6,N
1510252395.8,286046996.8,N
1510252415.6,286046997.3,N
1510252435.5,286046997.5,N
1510252455.3,286046997.4,N
1510252475.1,286046999.0,N
1510252495.9,286046998.8,N
1510252515.7,286046998.9,N
1510252535.6,286046998.4,N
1510252555.4,286046999.1,N
1510252575.2,286046996.9,N
1510252595.1,286046998.8,N
1510252596.0,286046998.8,N
1510252615.8,286046998.1,N
1510252635.6,286046998.9,N
1510252655.5,286047001.2,N
1510252675.3,286047000.3,N
1510252695.2,286046998.6,N
1510252715.9,286047000.7,N
1510252735.7,286047000.4,N
1510252755.6,286047000.8,N
1510252775.4,286047002.2,N
1510252795.2,286047001.1,N
1510252815.1,286047001.2,N
1510252816.0,286047001.2,N
1510252835.8,286047000.6,N
1510252855.7,286047001.1,N
1510252875.5,286046999.1,N
1510252895.3,286046998.7,N
1510252915.2,286046996.7,N
1510252935.9,286046997.2,N
1510252955.7,286046998.8,N
1510252975.6,286046998.7,N
1510252995.4,286046999.3,N
1510253015.3,286046996.9,N
1510253035.1,286046997.0,N
1510253036.0,286046997.0,N
1510253055.8,286047000.5,N
1510253075.7,286047000.8,N
1510253095.5,286046998.8,N
1510253115.3,286047002.8,N
1510253135.2,286047000.4,N
1510253155.0,286047001.2,N
1510253155.9,286047001.2,N
1510253175.8,286047001.2,N
1510253195.6,286046998.2,N
1510253215.4,286046996.5,N
1510253235.3,286046996.5,N
1510253255.1,286046998.3,N
1510253275.9,286046998.3,N
1510253295.7,286047001.2,N
1510253315.5,286046998.6,N
1510253335.4,286046999.3,N
1510253355.2,286046998.9,N
1510253375.0,286046996.6,N
1510253375.9,286046996.6,N
1510253395.8,286046997.1,N
1510253415.6,286046995.7,N
1510253435.5,286046995.3,N
1510253455.3,286046994.9,N
1510253475.1,286046995.3,N
1510253495.9,286046994.9,N
1510253515.7,286046997.1,N
1510253535.6,286046997.1,N
1510253555.4,286046999.2,N
1510253575.2,286046999.0,N
1510253595.1,286046998.7,N
1510253596.0,286046998.7,N
1510253615.8,286047001.1,N
1510253635.6,286046999.5,N
1510253655.5,286046996.6,N
1510253675.3,286046996.9,N
1510253695.2,286046999.2,N
1510253715.9,286046998.8,N
1510253735.7,286046998.4,N
1510253755.6,286046999.1,N
1510253775.4,286046998.8,N
1510253795.2,286046998.9,N
1510253815.1,286046999.4,N
1510253816.0,286046999.4,N
1510253835.8,286046998.7,N
1510253855.7,286046996.9,N
1510253875.5,286046997.3,N
1510253895.4,286046996.6,N
1510253915.2,286046997.1,N
1510253935.0,286046996.5,N
1510253935.9,286046996.5,N
1510253955.8,286046996.6,N
1510253975.6,286046999.5,N
1510253995.4,286046999.1,N
